Volver al catálogo

STARLINK-5288

ActivoComunicacionesVLEO
NORAD 55307·PAYLOAD·🇺🇸 United States

Lanzado Jan 19, 2023 desde Vandenberg Space Force Base

Loading…

Próximos Pases (próximas 24 horas)

TLE

ActualizadoSource: CelesTrak SupGP

Época: Sep 15, 2026, 01:55 UTC

1 55307C 23010AQ  26258.08034722 -.00044286  00000+0 -37105-2 0  2586
2 55307  69.9992 247.0904 0003890 267.7507 220.9772 14.98359711    14

Sigue STARLINK-5288 en tiempo real con AllMySat

Download on the App Store